Location: Walnut Hills Mobile Home Park
(34.0445°N, 117.8184°W)
Time: 02:31:27
(UTC+00:00)

Cosmos 2151 - Pass Details

Date: 17 December 2025
Orbit: 559 x 575 km, 82.5° (Epoch: 15 January)

Event Time Altitude Azimuth Distance (km) Brightness Sun altitude
Rises 13:31:21 0° 198° (SSW) 2,734 6.4 -16.0°
Reaches altitude 10° 13:33:33 10° 204° (SSW) 1,845 5.4 -15.6°
Maximum altitude 13:37:29 48° 279° (W) 744 3.0 -14.8°
Drops below altitude 10° 13:41:28 10° 354° (N) 1,866 5.3 -14.0°
Sets 13:43:43 0° 0° (N) 2,770 6.2 -13.6°
